Regional Weather Roundup
Issued by NWS

Home | Current Version | Previous Version | Text Only | Print | Product List | Glossary On
Versions: 1 2 3 4 5 6 7 8 9 10 11 12 13 14 15 16 17 18 19 20 21 22 23 24 25 26 27 28 29 30 31 32 33 34 35 36 37 38 39 40 41 42 43 44 45 46 47 48 49 50
407
ASUS44 KOUN 072300
RWROK

WEATHER ROUNDUP FOR OKLAHOMA
NATIONAL WEATHER SERVICE NORMAN OK
500 PM CST SUN FEB 07 2016

NOTE: "FAIR" INDICATES FEW OR NO CLOUDS BELOW 12,000 FEET WITH NO
      SIGNIFICANT WEATHER AND/OR OBSTRUCTIONS TO VISIBILITY.

OKZ001>007-009>012-014-015-017-080000-
NORTHWEST OKLAHOMA AND THE PANHANDLE

CITY           SKY/WX    TMP DP  RH WIND       PRES   REMARKS
GAGE           SUNNY     52  20  28 N22G33    30.23R
GUYMON         SUNNY     47  17  30 N21G29    30.28R
ENID/WOODRING  MOSUNNY   57  27  30 N24G33    30.17R
$$

OKZ016-021>023-033>039-044-045-080000-
SOUTHWEST OKLAHOMA

CITY           SKY/WX    TMP DP  RH WIND       PRES   REMARKS
LAWTON/REGL    SUNNY     60  26  27 NE17      30.15R
LAWTON/FT SILL SUNNY     59  28  30 NE13      30.14R
FREDERICK      SUNNY     60  28  29 N20G26    30.14R
CLINTON        SUNNY     57  24  28 N23G35    30.19R
HOBART         SUNNY     60  25  26 N23       30.17R
ALTUS AFB      SUNNY     61  24  24 NE15      30.16R
$$

OKZ018>020-024>031-080000-
CENTRAL OKLAHOMA

CITY           SKY/WX    TMP DP  RH WIND       PRES   REMARKS
OKLAHOMA CITY  MOSUNNY   57  25  29 N20       30.15R
OKC/WILEY POST SUNNY     57  25  29 N16G24    30.15S
OKC/TINKER AFB SUNNY     58  24  27 N18G31    30.13R
STILLWATER     SUNNY     56  25  30 N15G26    30.16R
GUTHRIE        SUNNY     58  23  26 VRB7G23   30.16R
$$

OKZ008-013-054>072-080000-
NORTHEAST OKLAHOMA

CITY           SKY/WX    TMP DP  RH WIND       PRES   REMARKS
TULSA          PTCLDY    58  26  29 NW13      30.09S
TULSA/JONES    CLEAR     58  24  27 NW10      30.12R
PONCA CITY     MOSUNNY   54  23  30 N24G32    30.16R
BARTLESVILLE   PTCLDY    55  22  27 NW8G23    30.14R
MUSKOGEE       CLEAR     57  27  31 N10       30.12R
$$

OKZ032-040>043-046>053-073>077-080000-
SOUTH CENTRAL/SOUTHEAST OKLAHOMA

CITY           SKY/WX    TMP DP  RH WIND       PRES   REMARKS
MCALESTER      SUNNY     59  27  29 N7        30.11R
$$





USA.gov is the U.S. government's official web portal to all federal, state and local government web resources and services.